RH
20 17 14 11 9 10 10 10 11 10 9 9 9 8 8 7 8 8 9 9 9 9 9 10 8 8 8 8 7 7 7 9 10 12 13 18 23 28 30 34 31 36 41 54 56 55 47
17 19 20 18 11 8 8 8 9 9 9 9 9 9 10 9 9 8 6 7 8 8 9 8 10 8 9 8 7 7 7 7 9 12 14 14 20 24 30 35 34 35 38 50 54 55 55
11 12 14 16 19 20 15 9 6 6 6 6 6 6 5 5 5 4 4 4 4 6 8 9 9 9 9 9 8 7 7 8 7 10 14 13 13 17 22 29 34 36 36 38 45 54 54
9 9 10 10 10 11 12 16 18 18 18 15 13 11 8 6 5 4 3 3 3 3 5 8 8 9 9 9 8 8 7 8 8 8 12 16 13 15 15 24 23 41 46 53 46 48 55
6 7 7 7 8 8 8 8 8 9 9 10 11 13 15 17 18 17 15 12 9 4 3 5 5 7 9 8 8 8 8 9 9 8 9 15 14 16 14 23 24 36 53 56 49 56 58
5 4 4 4 4 4 5 5 5 6 5 5 5 6 7 8 9 12 15 17 18 17 9 10 8 7 9 7 8 8 9 9 10 9 9 12 14 13 14 24 42 41 55 56 51 56 57
9 9 8 8 8 8 8 8 10 10 14 20 14 8 6 6 6 6 9 11 14 15 17 19 17 8 9 6 7 9 9 9 13 10 10 12 11 12 13 26 26 29 52 54 49 58 51
14 12 12 15 23 25 26 42 43 50 61 61 62 49 27 15 11 11 12 17 12 16 16 18 19 11 8 5 7 10 10 11 14 12 12 12 11 13 12 21 20 23 45 48 45 48 56
43 40 53 57 57 58 60 62 69 67 66 59 64 64 65 59 60 50 34 20 12 12 19 21 17 12 8 6 8 10 10 12 14 13 14 12 12 12 15 19 17 24 38 56 46 47 51
70 68 68 67 68 71 72 72 76 76 66 61 58 49 52 51 66 53 58 47 25 17 27 20 14 11 9 8 10 11 10 13 13 15 18 16 12 13 18 20 20 24 36 46 42 41 47
76 77 76 76 75 75 79 80 78 80 77 71 52 66 65 55 55 51 50 49 32 34 48 19 14 11 10 10 12 13 11 13 14 19 40 19 15 14 16 20 22 28 32 36 41 41 40
82 80 81 83 83 84 84 85 88 85 80 76 47 56 45 62 50 50 49 48 38 25 17 16 16 12 12 14 13 12 12 13 15 19 20 24 17 15 17 20 25 26 26 31 36 38 56
93 98 88 87 87 89 90 95 93 91 83 68 52 53 52 59 65 60 57 42 24 18 16 15 14 13 14 16 13 13 13 13 16 18 21 23 19 18 18 20 26 29 23 28 37 55 58
80 100 96 91 87 95 90 94 98 92 93 81 65 56 56 56 63 63 59 45 22 19 16 16 15 16 17 15 15 15 12 14 20 20 22 23 21 20 21 23 29 32 31 41 36 61 58
93 93 96 90 86 91 100 87 97 97 95 89 65 57 58 58 54 62 59 49 24 19 18 17 18 18 17 17 16 14 13 17 18 24 24 23 23 22 24 23 29 35 36 34 46 54 51
32 39 89 86 89 82 88 100 98 94 95 95 73 69 65 64 61 63 63 51 40 33 23 19 20 19 19 18 14 14 16 18 20 26 25 26 28 24 28 24 31 36 36 31 34 53 54
35 36 57 53 59 85 78 99 99 88 94 95 94 84 71 61 60 66 65 54 33 24 22 22 22 22 20 16 14 23 20 22 23 22 25 26 29 28 29 27 33 36 40 36 36 50 44
29 29 30 31 29 28 47 59 79 89 81 92 98 90 72 62 68 66 61 46 38 24 23 23 22 19 17 16 21 27 20 30 28 24 25 26 30 32 30 28 35 35 47 49 36 37 39
39 42 49 58 50 38 28 77 74 90 82 99 97 96 74 68 71 69 68 65 40 31 25 23 20 17 17 19 25 28 40 43 32 26 27 38 36 33 32 33 38 38 47 55 50 46 44
49 50 67 67 66 68 64 69 59 73 78 100 99 98 81 75 69 66 67 62 43 31 25 22 20 19 19 21 28 41 49 43 34 31 50 51 37 39 38 44 47 52 60 62 59 50 44
60 53 46 64 71 51 48 33 32 34 90 98 100 96 85 73 74 77 78 74 60 34 25 22 21 20 23 28 33 44 45 49 50 55 61 61 55 56 57 56 62 67 62 58 53 50 54
54 52 49 47 58 34 28 24 26 47 100 100 100 99 93 87 74 78 80 73 71 49 32 26 25 25 27 35 43 50 59 58 60 62 65 68 67 67 67 61 59 54 55 56 57 49 52
49 52 57 57 42 31 24 25 19 90 87 100 99 100 98 94 80 83 79 76 67 48 37 32 31 32 36 49 59 65 65 61 64 66 75 90 89 89 78 70 67 45 46 45 43 43 42
40 65 67 50 46 41 30 43 75 92 96 89 100 99 98 97 90 84 84 75 65 51 43 37 36 41 56 67 64 64 64 61 60 62 68 76 89 100 90 74 72 44 43 46 48 49 52
40 55 58 56 55 52 48 26 59 100 100 78 100 100 100 100 91 78 83 77 67 55 46 40 41 59 68 71 70 66 55 58 53 48 63 66 78 91 77 68 56 53 51 57 67 66 70
39 57 61 61 63 65 63 59 40 80 95 85 99 100 84 100 97 96 87 97 95 70 49 47 57 70 74 76 76 76 54 53 51 42 44 49 67 78 77 72 69 60 60 62 72 93 84
41 52 60 60 66 74 73 69 69 87 80 92 95 99 99 99 99 99 98 98 96 79 58 56 68 78 83 82 84 81 72 62 43 41 38 44 53 67 75 78 61 64 74 84 96 80 87
49 46 64 71 79 86 84 77 85 78 66 96 100 99 100 99 99 98 97 95 96 96 85 79 88 90 96 96 85 69 63 57 50 48 48 53 56 82 86 87 87 75 84 85 90 92 95
58 49 59 79 95 96 91 82 97 85 92 98 100 99 99 99 99 97 97 98 97 95 96 96 96 96 96 96 82 72 66 73 70 73 66 77 75 80 85 79 82 86 94 88 78 88 92
Wind_Speed
8 8 8 9 8 7 6 5 5 6 7 9 9 11 13 13 13 14 14 15 15 15 15 15 15 16 17 18 19 20 21 21 22 23 23 24 24 22 21 22 19 18 16 15 15 20 21
6 6 6 7 8 8 7 7 7 7 8 9 11 12 13 14 14 14 14 14 15 15 15 17 14 16 15 17 18 19 20 21 21 21 21 23 24 24 24 22 20 20 21 17 14 18 21
3 5 6 7 7 8 8 9 9 9 10 11 12 13 14 15 16 17 17 16 16 16 17 15 17 14 14 16 16 17 20 20 21 20 19 20 21 24 25 23 26 19 20 17 11 14 16
5 4 5 7 8 9 9 10 11 12 12 12 13 14 15 16 17 18 18 18 17 16 17 16 18 15 13 16 18 17 20 20 19 20 19 17 20 23 26 24 23 22 17 24 18 13 8
7 8 8 8 8 9 10 11 12 13 15 15 15 15 16 18 18 19 19 19 19 18 17 16 18 13 9 14 16 16 19 19 17 19 22 15 20 22 28 25 23 20 24 22 19 13 13
8 8 9 10 10 10 11 12 12 13 15 16 17 17 17 18 18 19 20 20 21 19 15 19 12 14 10 14 17 14 18 19 17 18 23 14 15 22 28 24 22 24 23 23 15 18 14
9 8 8 9 9 10 11 12 13 13 14 17 19 18 18 19 19 20 19 20 21 19 20 18 20 14 5 12 17 13 16 18 17 17 21 14 16 22 28 21 23 22 20 20 14 16 13
8 8 8 8 9 9 10 11 12 12 15 18 20 21 20 20 19 20 20 21 21 21 21 20 20 8 3 13 18 13 16 18 18 16 20 15 16 18 26 21 24 25 17 18 16 14 14
8 8 8 9 10 11 11 11 13 14 20 23 21 21 22 22 22 22 20 20 20 20 22 18 9 3 5 15 16 16 15 17 18 15 16 13 16 17 26 21 27 27 15 13 16 16 16
10 10 10 11 11 12 12 14 18 15 19 23 19 20 21 23 21 20 17 18 19 17 14 5 4 2 7 18 8 14 14 17 17 14 17 10 15 18 26 22 26 29 9 9 12 14 14
13 14 13 12 13 14 15 16 19 20 22 23 24 24 28 23 17 18 17 18 16 17 5 6 2 4 12 19 18 12 15 15 14 12 23 16 16 18 26 21 24 26 5 9 13 17 15
17 17 18 16 17 19 18 20 21 21 21 23 25 27 26 19 17 18 20 18 17 5 3 4 5 6 16 19 12 12 17 15 8 11 16 17 14 19 22 19 22 25 6 7 11 9 10
22 22 21 21 21 20 21 22 21 21 20 20 23 23 25 20 20 19 20 19 10 4 4 3 6 15 18 16 10 14 15 16 9 10 16 14 9 18 23 20 17 25 12 5 5 5 1
25 29 27 26 24 23 26 25 28 24 19 21 23 19 23 22 21 21 22 17 5 5 8 13 13 17 14 8 11 18 13 11 10 12 10 13 8 16 22 15 13 24 20 5 2 1 4
31 31 32 28 29 26 27 29 22 22 23 21 20 19 22 21 24 23 19 9 5 8 8 11 17 11 5 10 16 8 13 7 9 9 12 9 9 10 20 11 16 11 11 11 2 1 1
30 30 30 30 30 30 29 27 26 23 23 19 22 20 20 22 23 20 18 12 10 13 15 14 12 7 10 16 8 10 6 5 9 10 14 14 9 8 20 7 9 13 19 7 5 2 2
29 29 31 34 35 29 32 31 33 33 24 29 23 21 21 23 26 20 16 12 12 12 11 10 11 15 15 9 8 8 3 8 6 13 16 15 9 15 15 5 6 9 16 9 4 3 1
26 27 30 30 32 35 37 35 35 30 25 29 25 21 21 23 23 17 14 13 14 14 14 14 15 14 7 8 8 6 3 9 14 13 17 10 10 13 13 4 3 5 16 10 2 2 4
25 25 26 28 30 32 34 34 35 28 23 28 28 21 23 20 20 21 17 17 16 16 15 12 9 7 11 9 5 4 7 15 15 13 10 16 8 10 4 3 5 15 19 13 8 7 10
31 30 30 28 32 34 35 32 34 31 27 29 24 19 24 24 16 12 17 19 15 15 15 10 10 14 13 12 10 9 18 11 14 13 18 16 10 12 12 18 21 23 23 21 15 9 9
37 34 33 34 32 38 33 37 31 32 28 29 30 24 22 20 27 24 21 19 20 15 15 17 17 13 12 12 15 19 19 19 14 17 15 15 15 18 20 20 25 27 21 16 20 21 15
37 35 33 36 35 33 33 32 32 29 27 29 30 25 25 25 25 25 23 22 20 17 17 18 17 15 15 17 18 22 23 17 17 15 14 18 15 22 32 18 10 19 19 23 23 21 23
33 31 29 30 32 30 29 29 31 29 28 33 29 24 25 28 27 26 26 21 19 17 16 16 17 16 16 18 22 22 20 19 21 22 23 26 21 14 12 13 20 16 6 7 9 12 13
31 32 29 26 27 27 27 26 31 30 29 33 32 29 29 30 27 26 26 21 19 19 19 19 19 18 20 20 19 19 18 17 20 22 23 23 22 12 14 16 3 5 8 13 15 17 17
30 29 27 27 25 25 26 29 27 29 32 33 32 27 29 31 30 27 24 19 20 21 21 20 20 20 21 21 19 13 15 9 7 11 8 10 14 9 6 6 14 18 20 19 19 20 20
29 28 27 27 27 25 25 26 29 37 40 40 35 37 36 37 30 27 26 26 21 22 22 21 21 21 22 18 16 7 5 11 6 4 6 7 11 14 9 5 5 5 11 14 16 19 16
30 30 27 26 28 28 28 28 29 34 35 38 40 39 36 37 33 30 29 24 22 20 23 20 21 21 19 20 18 13 11 11 5 5 5 8 11 20 21 10 12 17 17 16 9 13 15
31 30 28 28 28 29 29 30 30 30 33 31 34 39 40 35 33 31 28 23 24 21 21 22 20 23 21 15 11 10 9 9 9 12 11 14 10 10 10 8 12 15 14 11 16 22 28
33 31 30 29 29 29 29 29 28 28 33 36 39 39 35 36 33 31 28 31 30 25 25 25 25 20 13 10 10 8 11 14 16 11 15 16 19 15 13 12 17 19 26 31 34 33 33
Wind_Direction
58 51 43 38 39 37 30 25 17 7 7 8 3 6 3 2 357 355 354 354 355 354 352 347 349 351 354 360 1 0 1 4 3 5 9 8 4 4 2 354 347 337 328 329 315 331 331
45 35 33 31 24 23 19 10 356 349 349 343 342 346 340 339 337 335 336 337 339 343 342 346 336 344 343 352 356 357 357 357 357 358 5 9 6 5 3 352 346 335 322 316 305 328 340
26 18 3 5 8 7 5 358 354 349 346 340 336 337 329 328 326 325 328 328 327 329 333 335 341 330 336 343 347 355 356 352 354 351 358 4 4 6 0 3 347 338 334 329 315 321 339
321 334 338 343 346 348 350 346 342 340 338 337 336 337 330 329 328 327 329 329 328 325 324 324 333 331 329 343 341 349 354 349 348 352 349 349 1 2 2 356 357 356 344 344 357 336 332
301 312 317 321 329 332 334 333 334 336 334 332 332 330 324 321 322 322 326 328 327 327 325 321 327 334 320 341 341 342 351 351 345 352 353 343 354 2 359 360 1 358 343 351 360 6 349
295 304 310 316 322 324 326 327 329 334 334 331 329 326 320 318 317 321 324 324 322 324 325 323 324 324 313 339 344 341 349 352 348 347 352 351 356 1 1 4 353 346 345 356 355 358 7
295 298 304 314 320 325 328 333 338 341 342 338 332 327 324 322 323 325 327 323 323 325 325 324 317 306 299 344 346 341 347 352 356 350 350 359 6 6 7 3 3 4 0 5 13 5 6
300 302 309 316 320 329 332 338 342 342 341 339 334 329 326 328 328 329 330 330 329 326 322 319 313 284 308 351 344 341 346 353 355 354 354 358 9 4 3 1 7 10 13 14 23 25 55
296 299 306 311 316 322 324 330 333 329 337 336 331 328 321 321 326 326 328 330 330 328 322 318 327 205 336 346 340 336 341 345 353 4 359 0 2 7 3 5 9 13 8 19 21 57 58
282 283 290 300 307 312 316 317 331 325 335 339 331 336 339 331 325 328 330 331 335 332 327 359 2 266 333 347 342 336 340 347 351 10 12 350 355 6 9 10 7 10 14 36 46 75 45
271 278 280 288 297 302 305 311 323 329 319 332 332 324 330 334 335 342 340 339 337 332 7 343 341 323 332 343 336 336 341 343 349 19 345 356 355 359 12 8 10 3 50 64 71 71 76
271 271 277 283 295 297 296 301 311 319 325 323 330 329 337 335 338 342 342 340 335 321 261 312 309 319 328 337 339 338 342 345 344 1 356 2 357 2 4 11 19 9 120 94 74 86 41
264 268 268 273 280 290 293 299 303 304 305 314 321 325 334 327 330 333 335 335 330 236 312 293 310 320 326 333 333 334 340 346 3 8 358 357 4 360 357 14 24 25 58 21 35 28 245
268 277 273 274 277 285 288 299 292 291 286 303 311 322 330 334 330 329 328 327 280 285 292 292 310 318 323 338 332 333 339 346 5 12 348 344 353 2 359 23 19 29 34 47 124 1 299
271 267 275 277 281 281 279 293 289 298 285 288 307 314 327 331 329 328 330 322 268 290 294 302 310 310 320 324 327 334 336 345 356 4 9 339 332 3 1 24 29 25 23 25 66 53 21
268 269 268 272 277 281 283 286 283 302 287 289 299 307 317 322 327 326 326 318 284 291 291 300 309 290 305 318 324 331 341 328 338 347 347 338 318 349 354 23 50 33 22 14 17 36 12
269 269 272 279 279 275 280 282 277 290 295 282 287 300 314 321 324 320 316 308 301 290 289 293 295 295 305 309 313 326 315 322 316 325 335 334 332 328 353 348 84 48 22 21 28 44 100
271 272 272 275 277 277 273 275 282 285 279 284 282 294 307 316 316 318 310 306 302 289 288 289 294 292 284 302 305 306 306 320 310 314 327 328 316 316 338 137 76 353 350 350 127 199 245
272 270 273 277 274 275 277 277 278 275 285 277 280 292 302 311 309 306 302 298 291 289 287 286 273 265 292 289 299 273 303 318 303 310 320 321 304 317 348 204 325 317 323 326 321 282 234
274 275 270 274 282 279 280 264 271 272 270 269 270 288 300 309 308 304 306 301 292 290 282 269 267 282 279 275 272 278 308 307 297 293 305 304 282 282 264 292 297 296 299 295 286 233 233
273 273 270 272 288 281 268 268 272 271 262 261 263 279 293 287 298 297 297 292 285 278 274 280 277 277 269 268 284 294 306 307 295 299 306 299 290 295 295 296 296 292 288 283 268 272 260
268 269 271 276 273 277 270 262 258 259 261 259 260 272 287 282 291 293 295 296 289 277 273 276 270 275 268 275 286 296 301 301 306 311 304 296 290 301 304 315 290 298 293 283 276 268 256
269 268 270 276 278 269 264 257 256 248 260 255 262 271 280 274 282 289 292 293 284 278 275 270 268 269 275 285 291 292 288 291 290 290 292 289 284 298 293 302 309 298 278 260 256 260 266
270 269 270 270 271 271 265 254 256 242 250 260 258 274 269 270 273 285 285 279 275 271 271 275 273 274 289 294 295 291 289 284 280 278 270 270 276 273 277 302 264 269 282 276 267 266 264
273 270 269 270 269 269 265 253 248 245 247 257 260 263 263 265 277 277 281 277 274 271 270 270 269 283 289 293 295 303 308 282 268 274 262 256 254 249 257 244 277 275 266 269 272 275 272
272 269 266 268 270 269 266 263 255 249 255 262 253 264 269 255 265 271 271 274 268 268 266 267 273 283 289 280 289 279 263 283 253 247 254 250 240 233 234 247 261 271 274 274 279 277 271
271 266 263 267 273 269 268 262 260 260 257 255 252 254 266 251 255 262 267 270 263 259 263 265 273 283 280 278 277 266 258 245 247 239 249 247 257 241 245 251 269 273 274 281 267 279 276
270 267 261 262 263 265 266 272 268 261 252 254 255 261 255 254 255 266 262 257 260 253 257 263 269 271 268 259 255 251 238 236 249 254 260 256 254 250 245 242 258 259 267 273 282 291 294
268 267 262 259 263 268 265 264 264 259 253 251 252 260 249 259 261 263 254 257 259 250 250 256 263 264 249 247 239 243 253 262 272 260 255 257 241 251 233 248 271 271 283 293 295 291 295